| time (UTC) | temp C | wind direction | speed KPH | gust KPH | rain 1hr cm | rain 24hr cm | rain mn cm | humidity % | barometer mb |
| 20260505010455 | 21 | 200 | 9.7 | 16.1 | 0.00 | 0.00 | 0.00 | 48 | 1004.2 |
| 20260505005955 | 21 | 200 | 9.7 | 16.1 | 0.00 | 0.00 | 0.00 | 47 | 1004.2 |
| 20260505005454 | 21 | 186 | 11.3 | 16.1 | 0.00 | 0.00 | 0.00 | 46 | 1004.1 |
| 20260505004954 | 21 | 179 | 11.3 | 20.9 | 0.00 | 0.00 | 0.00 | 46 | 1004.2 |
| 20260505004454 | 21 | 184 | 9.7 | 16.1 | 0.00 | 0.00 | 0.00 | 46 | 1004.2 |
| 20260505003953 | 21 | 188 | 11.3 | 16.1 | 0.00 | 0.00 | 0.00 | 45 | 1004.2 |
| 20260505003450 | 22 | 211 | 14.5 | 22.5 | 0.00 | 0.00 | 0.00 | 45 | 1004.2 |
| 20260505002949 | 22 | 228 | 12.9 | 22.5 | 0.00 | 0.00 | 0.00 | 44 | 1004.2 |
| 20260505002449 | 22 | 238 | 12.9 | 22.5 | 0.00 | 0.00 | 0.00 | 44 | 1004.2 |
| 20260505001949 | 22 | 188 | 14.5 | 24.1 | 0.00 | 0.00 | 0.00 | 44 | 1004.2 |
| 20260505001449 | 22 | 193 | 12.9 | 27.4 | 0.00 | 0.00 | 0.00 | 44 | 1004.3 |
| 20260505000949 | 22 | 229 | 9.7 | 17.7 | 0.00 | 0.00 | 0.00 | 43 | 1004.3 |
| 20260505000448 | 22 | 231 | 12.9 | 24.1 | 0.00 | 0.00 | 0.00 | 41 | 1004.4 |
| 20260504235948 | 22 | 218 | 17.7 | 32.2 | 0.00 | 0.00 | 0.00 | 40 | 1004.5 |
| 20260504235448 | 22 | 228 | 20.9 | 43.5 | 0.00 | 0.00 | 0.00 | 40 | 1004.5 |
| 20260504234948 | 22 | 222 | 22.5 | 40.2 | 0.00 | 0.00 | 0.00 | 39 | 1004.6 |
| 20260504234447 | 23 | 233 | 22.5 | 46.7 | 0.00 | 0.00 | 0.00 | 39 | 1004.6 |
| 20260504233447 | 23 | 233 | 25.7 | 41.8 | 0.00 | 0.00 | 0.00 | 39 | 1004.6 |
| 20260504232947 | 23 | 226 | 19.3 | 33.8 | 0.00 | 0.00 | 0.00 | 41 | 1004.6 |
| 20260504232446 | 23 | 212 | 16.1 | 25.7 | 0.00 | 0.00 | 0.00 | 44 | 1004.6 |
| 20260504231946 | 23 | 201 | 11.3 | 17.7 | 0.00 | 0.00 | 0.00 | 46 | 1004.5 |
| 20260504231446 | 23 | 201 | 11.3 | 17.7 | 0.00 | 0.00 | 0.00 | 47 | 1004.8 |
| 20260504230946 | 23 | 221 | 12.9 | 22.5 | 0.00 | 0.00 | 0.00 | 45 | 1004.9 |
| 20260504230446 | 23 | 203 | 9.7 | 12.9 | 0.00 | 0.00 | 0.00 | 46 | 1004.9 |
| 20260504225945 | 22 | 195 | 9.7 | 14.5 | 0.00 | 0.00 | 0.00 | 45 | 1005.0 |
| 20260504225445 | 22 | 210 | 9.7 | 14.5 | 0.00 | 0.00 | 0.00 | 46 | 1005.1 |
| 20260504224945 | 22 | 207 | 9.7 | 16.1 | 0.00 | 0.00 | 0.00 | 45 | 1005.1 |
| 20260504224445 | 22 | 214 | 9.7 | 16.1 | 0.00 | 0.00 | 0.00 | 46 | 1005.2 |
| 20260504223944 | 22 | 174 | 9.7 | 22.5 | 0.00 | 0.00 | 0.00 | 44 | 1005.3 |
| 20260504223444 | 22 | 221 | 12.9 | 22.5 | 0.00 | 0.00 | 0.00 | 44 | 1005.4 |
| 20260504222944 | 23 | 214 | 11.3 | 19.3 | 0.00 | 0.00 | 0.00 | 43 | 1005.3 |
| 20260504222444 | 23 | 188 | 9.7 | 17.7 | 0.00 | 0.00 | 0.00 | 44 | 1005.3 |
| 20260504221944 | 23 | 221 | 9.7 | 16.1 | 0.00 | 0.00 | 0.00 | 48 | 1005.3 |
| 20260504221444 | 23 | 224 | 9.7 | 17.7 | 0.00 | 0.00 | 0.00 | 45 | 1005.4 |
| 20260504220943 | 23 | 195 | 9.7 | 16.1 | 0.00 | 0.00 | 0.00 | 46 | 1005.4 |
| 20260504220443 | 22 | 219 | 9.7 | 14.5 | 0.00 | 0.00 | 0.00 | 44 | 1005.4 |
| 20260504215943 | 23 | 221 | 8.0 | 12.9 | 0.00 | 0.00 | 0.00 | 46 | 1005.2 |
| 20260504215440 | 22 | 226 | 9.7 | 17.7 | 0.00 | 0.00 | 0.00 | 48 | 1005.4 |
| 20260504214940 | 22 | 215 | 14.5 | 22.5 | 0.00 | 0.00 | 0.00 | 45 | 1005.7 |
| 20260504214439 | 22 | 214 | 12.9 | 22.5 | 0.00 | 0.00 | 0.00 | 46 | 1005.8 |
| 20260504213939 | 22 | 233 | 14.5 | 29.0 | 0.00 | 0.00 | 0.00 | 46 | 1005.8 |
| 20260504213439 | 22 | 221 | 11.3 | 19.3 | 0.00 | 0.00 | 0.00 | 47 | 1005.9 |
| 20260504212939 | 22 | 215 | 14.5 | 24.1 | 0.00 | 0.00 | 0.00 | 46 | 1005.9 |
| 20260504212439 | 22 | 219 | 14.5 | 22.5 | 0.00 | 0.00 | 0.00 | 44 | 1005.9 |
| 20260504211938 | 22 | 221 | 16.1 | 30.6 | 0.00 | 0.00 | 0.00 | 47 | 1006.0 |
| 20260504211438 | 22 | 240 | 17.7 | 30.6 | 0.00 | 0.00 | 0.00 | 46 | 1006.1 |
| 20260504210938 | 22 | 221 | 16.1 | 27.4 | 0.00 | 0.00 | 0.00 | 48 | 1006.1 |
| 20260504210438 | 22 | 217 | 14.5 | 27.4 | 0.00 | 0.00 | 0.00 | 46 | 1006.2 |
| 20260504205937 | 22 | 225 | 12.9 | 24.1 | 0.00 | 0.00 | 0.00 | 48 | 1006.3 |
| 20260504205437 | 22 | 218 | 11.3 | 22.5 | 0.00 | 0.00 | 0.00 | 49 | 1006.3 |
| 20260504204937 | 22 | 226 | 12.9 | 27.4 | 0.00 | 0.00 | 0.00 | 48 | 1006.3 |
| 20260504204436 | 21 | 210 | 14.5 | 32.2 | 0.00 | 0.00 | 0.00 | 48 | 1006.5 |
| 20260504203936 | 21 | 210 | 12.9 | 27.4 | 0.00 | 0.00 | 0.00 | 49 | 1006.7 |
| 20260504203436 | 21 | 253 | 14.5 | 30.6 | 0.00 | 0.00 | 0.00 | 48 | 1006.9 |
| 20260504202934 | 21 | 232 | 12.9 | 24.1 | 0.00 | 0.00 | 0.00 | 51 | 1006.9 |
| 20260504202434 | 21 | 224 | 11.3 | 29.0 | 0.00 | 0.00 | 0.00 | 49 | 1006.8 |
| 20260504201934 | 21 | 226 | 9.7 | 17.7 | 0.00 | 0.00 | 0.00 | 52 | 1006.8 |
| 20260504201434 | 21 | 217 | 11.3 | 19.3 | 0.00 | 0.00 | 0.00 | 57 | 1006.9 |
| 20260504200934 | 21 | 232 | 11.3 | 17.7 | 0.00 | 0.00 | 0.00 | 58 | 1007.0 |
| 20260504200434 | 20 | 238 | 12.9 | 22.5 | 0.00 | 0.00 | 0.00 | 57 | 1006.9 |
| 20260504195933 | 20 | 183 | 11.3 | 19.3 | 0.00 | 0.00 | 0.00 | 59 | 1006.9 |
| 20260504195433 | 20 | 228 | 8.0 | 19.3 | 0.00 | 0.00 | 0.00 | 61 | 1007.0 |
| 20260504194933 | 19 | 188 | 8.0 | 12.9 | 0.00 | 0.00 | 0.00 | 63 | 1007.1 |
| 20260504194432 | 19 | 203 | 9.7 | 14.5 | 0.00 | 0.00 | 0.00 | 65 | 1007.3 |
| 20260504193929 | 18 | 190 | 8.0 | 14.5 | 0.00 | 0.00 | 0.00 | 63 | 1007.3 |
| 20260504193429 | 18 | 194 | 6.4 | 14.5 | 0.00 | 0.00 | 0.00 | 65 | 1007.3 |
| 20260504192928 | 18 | 217 | 8.0 | 16.1 | 0.00 | 0.00 | 0.00 | 63 | 1007.1 |
| 20260504192428 | 18 | 194 | 11.3 | 19.3 | 0.00 | 0.00 | 0.00 | 64 | 1007.8 |
| 20260504191927 | 18 | 214 | 12.9 | 20.9 | 0.00 | 0.00 | 0.00 | 64 | 1007.9 |
| 20260504191426 | 18 | 200 | 9.7 | 19.3 | 0.00 | 0.00 | 0.00 | 60 | 1007.6 |
| 20260504190926 | 19 | 240 | 11.3 | 22.5 | 0.00 | 0.00 | 0.00 | 58 | 1007.6 |
| 20260504190426 | 19 | 231 | 17.7 | 30.6 | 0.00 | 0.00 | 0.00 | 56 | 1008.5 |
| 20260504185926 | 19 | 217 | 19.3 | 32.2 | 0.00 | 0.00 | 0.00 | 55 | 1008.6 |
| 20260504185423 | 19 | 229 | 19.3 | 32.2 | 0.00 | 0.00 | 0.00 | 55 | 1008.1 |
| 20260504184923 | 20 | 212 | 17.7 | 33.8 | 0.00 | 0.00 | 0.00 | 53 | 1008.2 |
| 20260504184422 | 20 | 225 | 19.3 | 38.6 | 0.00 | 0.00 | 0.00 | 53 | 1008.0 |
| 20260504183922 | 20 | 224 | 17.7 | 29.0 | 0.00 | 0.00 | 0.00 | 54 | 1008.0 |
| 20260504183422 | 20 | 222 | 19.3 | 33.8 | 0.00 | 0.00 | 0.00 | 54 | 1007.9 |
| 20260504182921 | 20 | 212 | 12.9 | 20.9 | 0.00 | 0.00 | 0.00 | 57 | 1007.6 |
| 20260504182421 | 20 | 197 | 17.7 | 32.2 | 0.00 | 0.00 | 0.00 | 56 | 1007.5 |
| 20260504181421 | 21 | 218 | 22.5 | 38.6 | 0.00 | 0.00 | 0.00 | 48 | 1007.4 |
| 20260504180921 | 22 | 225 | 20.9 | 35.4 | 0.00 | 0.00 | 0.00 | 50 | 1007.2 |
| 20260504180420 | 21 | 188 | 16.1 | 32.2 | 0.00 | 0.00 | 0.00 | 52 | 1007.1 |
| 20260504175920 | 21 | 177 | 17.7 | 33.8 | 0.00 | 0.00 | 0.00 | 54 | 1007.1 |
| 20260504175420 | 21 | 132 | 16.1 | 27.4 | 0.00 | 0.00 | 0.00 | 54 | 1007.1 |
| 20260504174919 | 20 | 200 | 14.5 | 25.7 | 0.00 | 0.00 | 0.00 | 52 | 1007.0 |
| 20260504174418 | 20 | 186 | 17.7 | 29.0 | 0.00 | 0.00 | 0.00 | 53 | 1007.2 |
| 20260504173917 | 20 | 224 | 17.7 | 30.6 | 0.00 | 0.00 | 0.00 | 54 | 1007.3 |
| 20260504172917 | 20 | 194 | 14.5 | 24.1 | 0.00 | 0.00 | 0.00 | 53 | 1007.3 |
| 20260504172414 | 20 | 194 | 11.3 | 24.1 | 0.00 | 0.00 | 0.00 | 54 | 1007.4 |
| 20260504171913 | 20 | 190 | 11.3 | 19.3 | 0.00 | 0.00 | 0.00 | 55 | 1007.3 |
| 20260504171413 | 20 | 219 | 14.5 | 24.1 | 0.00 | 0.00 | 0.00 | 54 | 1007.5 |
| 20260504170913 | 20 | 225 | 12.9 | 22.5 | 0.00 | 0.00 | 0.00 | 57 | 1007.5 |
| 20260504170413 | 19 | 224 | 11.3 | 19.3 | 0.00 | 0.00 | 0.00 | 57 | 1007.5 |
| 20260504160410 | 18 | 221 | 11.3 | 19.3 | 0.00 | 0.00 | 0.00 | 58 | 1007.9 |
| 20260504150906 | 16 | 179 | 12.9 | 22.5 | 0.00 | 0.00 | 0.00 | 58 | 1008.2 |
| 20260504150406 | 17 | 222 | 12.9 | 22.5 | 0.00 | 0.00 | 0.00 | 59 | 1008.1 |
| 20260504140903 | 16 | 194 | 12.9 | 22.5 | 0.00 | 0.00 | 0.00 | 64 | 1008.6 |
| 20260504140403 | 15 | 191 | 14.5 | 24.1 | 0.00 | 0.00 | 0.00 | 61 | 1008.8 |
| 20260504130400 | 13 | 141 | 3.2 | 8.0 | 0.00 | 0.00 | 0.00 | 68 | 1008.8 |
| 20260504110349 | 10 | 176 | 1.6 | 6.4 | 0.00 | 0.00 | 0.00 | 72 | 1008.9 |
| 20260504100344 | 8 | 98 | 1.6 | 4.8 | 0.00 | 0.00 | 0.00 | 75 | 1009.1 |
| 20260504081836 | 10 | 148 | 1.6 | 4.8 | 0.00 | 0.00 | 0.00 | 65 | 1009.8 |
| 20260504081336 | 10 | 118 | 1.6 | 4.8 | 0.00 | 0.00 | 0.00 | 64 | 1009.9 |
| 20260504080836 | 10 | 105 | 3.2 | 8.0 | 0.00 | 0.00 | 0.00 | 64 | 1009.9 |
| 20260504080336 | 10 | 153 | 3.2 | 6.4 | 0.00 | 0.00 | 0.00 | 64 | 1009.9 |
| 20260504070330 | 11 | 150 | 4.8 | 9.7 | 0.00 | 0.00 | 0.00 | 63 | 1010.2 |
| 20260504050310 | 11 | 181 | 4.8 | 9.7 | 0.00 | 0.00 | 0.00 | 60 | 1011.3 |
| 20260504045810 | 11 | 167 | 4.8 | 9.7 | 0.00 | 0.00 | 0.00 | 60 | 1011.3 |
| 20260504045308 | 11 | 181 | 4.8 | 11.3 | 0.00 | 0.00 | 0.00 | 59 | 1011.4 |
| 20260504044808 | 11 | 203 | 6.4 | 11.3 | 0.00 | 0.00 | 0.00 | 59 | 1011.5 |
| 20260504044308 | 11 | 180 | 8.0 | 16.1 | 0.00 | 0.00 | 0.00 | 58 | 1011.4 |
| 20260504043807 | 11 | 181 | 6.4 | 12.9 | 0.00 | 0.00 | 0.00 | 58 | 1011.5 |
| 20260504043307 | 11 | 155 | 6.4 | 14.5 | 0.00 | 0.00 | 0.00 | 58 | 1011.5 |
| 20260504042307 | 12 | 158 | 4.8 | 9.7 | 0.00 | 0.00 | 0.00 | 56 | 1011.6 |
| 20260504041807 | 12 | 169 | 6.4 | 9.7 | 0.00 | 0.00 | 0.00 | 56 | 1011.6 |
| 20260504041305 | 12 | 152 | 8.0 | 12.9 | 0.00 | 0.00 | 0.00 | 55 | 1011.7 |
| 20260504040804 | 12 | 149 | 6.4 | 14.5 | 0.00 | 0.00 | 0.00 | 55 | 1011.7 |
| 20260504040302 | 12 | 173 | 8.0 | 12.9 | 0.00 | 0.00 | 0.00 | 55 | 1011.8 |
| 20260504035802 | 12 | 156 | 8.0 | 12.9 | 0.00 | 0.00 | 0.00 | 53 | 1011.7 |
| 20260504035301 | 12 | 184 | 9.7 | 14.5 | 0.00 | 0.00 | 0.00 | 53 | 1011.8 |
| 20260504034801 | 12 | 190 | 8.0 | 14.5 | 0.00 | 0.00 | 0.00 | 53 | 1011.8 |
| 20260504034301 | 13 | 200 | 8.0 | 14.5 | 0.00 | 0.00 | 0.00 | 52 | 1011.9 |
| 20260504033801 | 13 | 183 | 8.0 | 16.1 | 0.00 | 0.00 | 0.00 | 52 | 1012.0 |
| 20260504033300 | 13 | 176 | 9.7 | 14.5 | 0.00 | 0.00 | 0.00 | 51 | 1012.0 |
| 20260504032758 | 13 | 201 | 8.0 | 14.5 | 0.00 | 0.00 | 0.00 | 51 | 1011.9 |
| 20260504032258 | 13 | 176 | 8.0 | 16.1 | 0.00 | 0.00 | 0.00 | 51 | 1011.9 |
| 20260504031758 | 13 | 173 | 8.0 | 11.3 | 0.00 | 0.00 | 0.00 | 50 | 1012.0 |
| 20260504031257 | 13 | 148 | 8.0 | 14.5 | 0.00 | 0.00 | 0.00 | 49 | 1012.0 |
| 20260504030757 | 13 | 200 | 8.0 | 11.3 | 0.00 | 0.00 | 0.00 | 49 | 1012.0 |
| 20260504030257 | 13 | 194 | 9.7 | 16.1 | 0.00 | 0.00 | 0.00 | 49 | 1012.1 |
| 20260504025757 | 13 | 194 | 9.7 | 14.5 | 0.00 | 0.00 | 0.00 | 49 | 1012.2 |
| 20260504025256 | 13 | 162 | 8.0 | 11.3 | 0.00 | 0.00 | 0.00 | 49 | 1012.2 |
| 20260504024256 | 13 | 221 | 8.0 | 14.5 | 0.00 | 0.00 | 0.00 | 49 | 1012.3 |
| 20260504023756 | 13 | 219 | 8.0 | 17.7 | 0.00 | 0.00 | 0.00 | 47 | 1012.3 |
| 20260504023255 | 13 | 193 | 8.0 | 11.3 | 0.00 | 0.00 | 0.00 | 48 | 1012.3 |
| 20260504022755 | 14 | 180 | 6.4 | 12.9 | 0.00 | 0.00 | 0.00 | 48 | 1012.3 |
| 20260504022255 | 14 | 198 | 8.0 | 14.5 | 0.00 | 0.00 | 0.00 | 46 | 1012.3 |
| 20260504021755 | 14 | 177 | 6.4 | 12.9 | 0.00 | 0.00 | 0.00 | 47 | 1012.3 |
| 20260504021255 | 14 | 188 | 9.7 | 20.9 | 0.00 | 0.00 | 0.00 | 46 | 1012.3 |
| 20260504020755 | 14 | 229 | 8.0 | 14.5 | 0.00 | 0.00 | 0.00 | 47 | 1012.4 |
| 20260504020254 | 14 | 200 | 6.4 | 12.9 | 0.00 | 0.00 | 0.00 | 46 | 1012.2 |
| 20260504015753 | 14 | 233 | 6.4 | 11.3 | 0.00 | 0.00 | 0.00 | 46 | 1012.3 |
| 20260504015250 | 14 | 194 | 4.8 | 8.0 | 0.00 | 0.00 | 0.00 | 44 | 1012.2 |
| 20260504014750 | 14 | 176 | 3.2 | 8.0 | 0.00 | 0.00 | 0.00 | 45 | 1012.2 |
| 20260504014250 | 14 | 203 | 4.8 | 6.4 | 0.00 | 0.00 | 0.00 | 44 | 1012.1 |
| 20260504013750 | 14 | 200 | 4.8 | 9.7 | 0.00 | 0.00 | 0.00 | 44 | 1012.0 |
| 20260504013249 | 14 | 197 | 4.8 | 8.0 | 0.00 | 0.00 | 0.00 | 43 | 1011.9 |
| 20260504012749 | 14 | 187 | 4.8 | 8.0 | 0.00 | 0.00 | 0.00 | 44 | 1011.9 |
| 20260504012249 | 14 | 195 | 4.8 | 8.0 | 0.00 | 0.00 | 0.00 | 43 | 1011.9 |
| 20260504011749 | 14 | 200 | 6.4 | 9.7 | 0.00 | 0.00 | 0.00 | 43 | 1011.9 |
| 20260504011246 | 14 | 172 | 4.8 | 9.7 | 0.00 | 0.00 | 0.00 | 44 | 1011.9 |
| 20260504010746 | 14 | 166 | 4.8 | 8.0 | 0.00 | 0.00 | 0.00 | 44 | 1011.9 |